When you browse on this site, cookies collect data to enhance your experience and personalize the content and advertising you see.
Visit our Privacy Policy to learn more. By continuing to use the site, you agree to this use of cookies and data.
  • In Sweden
  • List of Countries
  • For 7 days
  • Water Temperature
  • Weather Map
  • Weather Widgets
  • user-avatar
    Login

    Hourly Weather Stavische

    Today, 31 May, Sunday

    Time Temperature Precipitation Wind Pressure Humidity
    00:00 +9°C° 0.1 mm 5 mps 733 mmHg 94%
    01:00 +9°C° 0.1 mm 6 mps 733 mmHg 94%
    02:00 +8°C° 0 mm 5 mps 734 mmHg 93%
    03:00 +8°C° 0.1 mm 5 mps 734 mmHg 93%
    04:00 +8°C° 0.1 mm 5 mps 734 mmHg 94%
    05:00 +8°C° 0.1 mm 5 mps 734 mmHg 94%
    06:00 +8°C° 0.3 mm 5 mps 734 mmHg 94%
    07:00 +9°C° 0.3 mm 5 mps 735 mmHg 94%
    08:00 +9°C° 0 mm 5 mps 735 mmHg 93%
    09:00 +9°C° 0.1 mm 5 mps 735 mmHg 92%
    10:00 +10°C° 0.1 mm 4 mps 735 mmHg 92%
    11:00 +11°C° 0.1 mm 4 mps 736 mmHg 91%
    12:00 +11°C° 0.1 mm 3 mps 736 mmHg 90%
    13:00 +11°C° 0.1 mm 3 mps 736 mmHg 89%
    14:00 +12°C° 0.1 mm 2 mps 736 mmHg 89%
    15:00 +12°C° 0.1 mm 2 mps 736 mmHg 89%
    16:00 +12°C° 0.1 mm 2 mps 736 mmHg 89%
    17:00 +12°C° 0.1 mm 1 mps 736 mmHg 90%
    18:00 +12°C° 0 mm 1 mps 736 mmHg 91%
    19:00 +11°C° 0 mm 1 mps 736 mmHg 93%
    20:00 +10°C° 0 mm 1 mps 736 mmHg 95%
    21:00 +10°C° 0 mm 1 mps 736 mmHg 95%
    22:00 +10°C° 0 mm 1 mps 736 mmHg 95%
    23:00 +10°C° 0 mm 1 mps 736 mmHg 95%

    Tomorrow, 1 June, Monday

    Time Temperature Precipitation Wind Pressure Humidity
    00:00 +10°C° 0.3 mm 1 mps 736 mmHg 96%
    01:00 +10°C° 0.3 mm 1 mps 736 mmHg 96%
    02:00 +10°C° 0.3 mm 1 mps 736 mmHg 97%
    03:00 +9°C° 0.5 mm 3 mps 736 mmHg 97%
    04:00 +8°C° 0.5 mm 4 mps 735 mmHg 97%
    05:00 +8°C° 0.5 mm 5 mps 735 mmHg 97%
    06:00 +8°C° 0.7 mm 5 mps 735 mmHg 96%
    07:00 +8°C° 0.7 mm 6 mps 736 mmHg 95%
    08:00 +8°C° 0.7 mm 6 mps 736 mmHg 94%
    09:00 +8°C° 0.2 mm 7 mps 736 mmHg 92%
    10:00 +8°C° 0.2 mm 7 mps 737 mmHg 91%
    11:00 +8°C° 0.2 mm 7 mps 737 mmHg 90%
    12:00 +9°C° 0.2 mm 7 mps 737 mmHg 86%
    13:00 +10°C° 0.2 mm 7 mps 737 mmHg 81%
    14:00 +11°C° 0.2 mm 7 mps 737 mmHg 77%
    15:00 +11°C° 0.4 mm 6 mps 737 mmHg 77%
    16:00 +11°C° 0.4 mm 6 mps 737 mmHg 77%
    17:00 +10°C° 0.4 mm 6 mps 737 mmHg 77%
    18:00 +9°C° 0.2 mm 5 mps 737 mmHg 82%
    19:00 +8°C° 0.2 mm 4 mps 737 mmHg 86%
    20:00 +7°C° 0.2 mm 3 mps 737 mmHg 91%
    21:00 +7°C° 0 mm 3 mps 737 mmHg 92%
    22:00 +5°C° 0 mm 3 mps 737 mmHg 94%
    23:00 +4°C° 0 mm 3 mps 736 mmHg 96%

    Day after tomorrow, 2 June, Tuesday

    Time Temperature Precipitation Wind Pressure Humidity
    00:00 +4°C° 0.1 mm 4 mps 736 mmHg 96%
    01:00 +4°C° 0.1 mm 4 mps 735 mmHg 96%
    02:00 +4°C° 0.1 mm 4 mps 735 mmHg 96%
    03:00 +3°C° 0.4 mm 5 mps 734 mmHg 96%
    04:00 +5°C° 0.4 mm 5 mps 734 mmHg 96%
    05:00 +4°C° 0.4 mm 6 mps 733 mmHg 95%
    06:00 +5°C° 0.4 mm 6 mps 733 mmHg 95%
    07:00 +5°C° 0.4 mm 6 mps 733 mmHg 94%
    08:00 +5°C° 0.4 mm 6 mps 733 mmHg 93%
    09:00 +5°C° 0.3 mm 6 mps 733 mmHg 93%
    10:00 +5°C° 0.3 mm 6 mps 733 mmHg 93%
    11:00 +5°C° 0.3 mm 6 mps 734 mmHg 93%
    12:00 +5°C° 0.2 mm 6 mps 734 mmHg 92%
    13:00 +5°C° 0.2 mm 7 mps 734 mmHg 92%
    14:00 +5°C° 0.2 mm 7 mps 734 mmHg 91%
    15:00 +7°C° 0.1 mm 6 mps 734 mmHg 90%
    16:00 +7°C° 0.1 mm 6 mps 734 mmHg 89%
    17:00 +7°C° 0.1 mm 6 mps 734 mmHg 88%
    18:00 +7°C° 0 mm 6 mps 734 mmHg 88%
    19:00 +7°C° 0 mm 5 mps 734 mmHg 89%
    20:00 +7°C° 0 mm 5 mps 734 mmHg 89%
    21:00 +7°C° 0 mm 5 mps 734 mmHg 90%
    22:00 +7°C° 0 mm 5 mps 734 mmHg 90%
    23:00 +7°C° 0 mm 5 mps 734 mmHg 91%

    3 June, Wednesday

    Time Temperature Precipitation Wind Pressure Humidity
    00:00 +7°C° 0 mm 5 mps 734 mmHg 91%
    01:00 +7°C° 0 mm 5 mps 734 mmHg 92%
    02:00 +7°C° 0 mm 5 mps 734 mmHg 92%
    03:00 +7°C° 0.2 mm 5 mps 734 mmHg 93%
    04:00 +7°C° 0.2 mm 5 mps 734 mmHg 93%
    05:00 +7°C° 0.2 mm 5 mps 734 mmHg 94%
    06:00 +8°C° 0.2 mm 5 mps 734 mmHg 93%
    07:00 +8°C° 0.2 mm 5 mps 735 mmHg 92%
    08:00 +10°C° 0.2 mm 4 mps 735 mmHg 91%
    09:00 +10°C° 0.4 mm 5 mps 735 mmHg 86%
    10:00 +13°C° 0.4 mm 5 mps 735 mmHg 81%
    11:00 +14°C° 0.4 mm 5 mps 735 mmHg 76%
    12:00 +14°C° 0.8 mm 5 mps 735 mmHg 76%
    13:00 +15°C° 0.8 mm 5 mps 735 mmHg 75%
    14:00 +15°C° 0.8 mm 5 mps 735 mmHg 75%
    15:00 +15°C° 0.5 mm 4 mps 735 mmHg 75%
    16:00 +15°C° 0.5 mm 4 mps 735 mmHg 75%
    17:00 +16°C° 0.5 mm 3 mps 735 mmHg 75%
    18:00 +14°C° 0.2 mm 3 mps 735 mmHg 80%
    19:00 +12°C° 0.2 mm 3 mps 735 mmHg 85%
    20:00 +12°C° 0.2 mm 2 mps 735 mmHg 90%
    21:00 +10°C° 0 mm 2 mps 735 mmHg 91%
    22:00 +9°C° 0 mm 2 mps 736 mmHg 92%
    23:00 +9°C° 0 mm 2 mps 736 mmHg 93%

    4 June, Thursday

    Time Temperature Precipitation Wind Pressure Humidity
    00:00 +8°C° 0 mm 2 mps 736 mmHg 94%
    01:00 +8°C° 0 mm 2 mps 736 mmHg 94%
    02:00 +8°C° 0 mm 2 mps 736 mmHg 95%
    03:00 +8°C° 0 mm 2 mps 736 mmHg 95%
    04:00 +8°C° 0 mm 3 mps 736 mmHg 96%
    05:00 +8°C° 0 mm 3 mps 736 mmHg 96%
    06:00 +9°C° 0 mm 3 mps 736 mmHg 92%
    07:00 +11°C° 0 mm 4 mps 737 mmHg 88%
    08:00 +13°C° 0 mm 4 mps 737 mmHg 84%
    09:00 +13°C° 0.3 mm 5 mps 737 mmHg 82%
    10:00 +14°C° 0.3 mm 5 mps 737 mmHg 79%
    11:00 +15°C° 0.3 mm 6 mps 737 mmHg 76%
    12:00 +15°C° 0.6 mm 6 mps 737 mmHg 76%
    13:00 +16°C° 0.6 mm 6 mps 736 mmHg 76%
    14:00 +16°C° 0.6 mm 6 mps 736 mmHg 76%
    15:00 +17°C° 0.5 mm 6 mps 736 mmHg 76%
    16:00 +17°C° 0.5 mm 5 mps 736 mmHg 77%
    17:00 +17°C° 0.5 mm 5 mps 736 mmHg 77%
    18:00 +15°C° 0.7 mm 4 mps 736 mmHg 81%
    19:00 +14°C° 0.7 mm 4 mps 736 mmHg 85%
    20:00 +12°C° 0.7 mm 3 mps 736 mmHg 89%
    21:00 +12°C° 0 mm 3 mps 736 mmHg 90%
    22:00 +11°C° 0 mm 3 mps 736 mmHg 91%
    23:00 +10°C° 0 mm 3 mps 736 mmHg 93%

    5 June, Friday

    Time Temperature Precipitation Wind Pressure Humidity
    00:00 +10°C° 0 mm 3 mps 736 mmHg 93%
    01:00 +10°C° 0 mm 3 mps 736 mmHg 93%
    02:00 +10°C° 0 mm 3 mps 736 mmHg 93%
    03:00 +10°C° 0 mm 3 mps 735 mmHg 93%
    04:00 +10°C° 0 mm 3 mps 735 mmHg 93%
    05:00 +11°C° 0 mm 3 mps 735 mmHg 93%
    06:00 +12°C° 0 mm 3 mps 735 mmHg 92%
    07:00 +13°C° 0 mm 4 mps 735 mmHg 90%
    08:00 +14°C° 0 mm 4 mps 735 mmHg 89%
    09:00 +16°C° 0.1 mm 5 mps 735 mmHg 86%
    10:00 +17°C° 0.1 mm 5 mps 735 mmHg 84%
    11:00 +19°C° 0.1 mm 6 mps 735 mmHg 81%
    12:00 +19°C° 1.8 mm 6 mps 735 mmHg 85%
    13:00 +17°C° 1.8 mm 6 mps 735 mmHg 89%
    14:00 +16°C° 1.8 mm 6 mps 735 mmHg 93%
    15:00 +16°C° 0.8 mm 5 mps 735 mmHg 92%
    16:00 +17°C° 0.8 mm 5 mps 735 mmHg 90%
    17:00 +18°C° 0.8 mm 4 mps 736 mmHg 88%
    18:00 +17°C° 0 mm 4 mps 736 mmHg 90%
    19:00 +16°C° 0 mm 3 mps 736 mmHg 91%
    20:00 +16°C° 0 mm 3 mps 737 mmHg 92%
    21:00 +14°C° 0.1 mm 3 mps 737 mmHg 93%
    22:00 +14°C° 0.1 mm 3 mps 737 mmHg 93%
    23:00 +13°C° 0.1 mm 3 mps 738 mmHg 94%
    Show more